C31FR-13 Weather Reports


time (UTC)temp
C
wind
direction
speed
KPH
gust
KPH
rain 1hr
cm
rain 24hr
cm
rain mn
cm
humidity
%
barometer
mb
20260510041102 11 0.0 0.0 0.00 0.00 0.00 83 1012.4
20260510040602 11 0.0 0.0 0.00 0.00 0.00 82 1012.5
20260510040104 11 0.0 0.0 0.00 0.00 0.00 84 1012.5
20260510035602 11 0.0 0.0 0.00 0.00 0.00 83 1012.7
20260510034602 11 0.0 0.0 0.00 0.00 0.00 85 1012.6
20260510034103 11 0.0 0.0 0.00 0.00 0.00 85 1012.7
20260510033602 11 0.0 0.0 0.00 0.00 0.00 84 1012.7
20260510033103 11 0.0 0.0 0.00 0.00 0.00 84 1012.7
20260510032603 11 0.0 0.0 0.00 0.00 0.00 86 1012.8
20260510032102 11 0.0 0.0 0.00 0.00 0.00 85 1012.8
20260510031602 11 0.0 0.0 0.00 0.00 0.00 85 1012.9
20260510031102 11 0.0 0.0 0.00 0.00 0.00 85 1012.9
20260510030602 11 0.0 0.0 0.00 0.00 0.00 85 1012.9
20260510025602 11 0.0 0.0 0.00 0.00 0.00 88 1012.9
20260510025103 11 0.0 0.0 0.00 0.00 0.00 85 1012.9
20260510024603 11 0.0 0.0 0.00 0.00 0.00 86 1012.8
20260510024103 11 0.0 0.0 0.00 0.00 0.00 87 1012.8
20260510023602 11 0.0 0.0 0.00 0.00 0.00 88 1012.8
20260510023103 11 0.0 0.0 0.00 0.00 0.00 87 1012.8
20260510022603 11 0.0 0.0 0.00 0.00 0.00 87 1012.9
20260510022102 11 0.0 0.0 0.00 0.00 0.00 86 1012.9
20260510021602 11 0.0 0.0 0.00 0.00 0.00 85 1012.9
20260510021102 11 0.0 0.0 0.00 0.00 0.00 86 1012.9
20260510020602 11 0.0 0.0 0.00 0.00 0.00 85 1012.9
20260510015602 11 0.0 0.0 0.00 0.00 0.00 85 1012.7
20260510015102 11 0.0 0.0 0.00 0.00 0.00 86 1012.6
20260510014603 11 0.0 0.0 0.00 0.00 0.00 86 1012.6
20260510014103 11 0.0 0.0 0.00 0.00 0.00 86 1012.6
20260510013601 11 0.0 0.0 0.00 0.00 0.00 89 1012.6
20260510013102 11 0.0 0.0 0.00 0.00 0.00 87 1012.7
20260510012602 11 0.0 0.0 0.00 0.00 0.00 84 1012.7
20260510012102 11 0.0 0.0 0.00 0.00 0.00 85 1012.7
20260510011603 11 0.0 0.0 0.00 0.00 0.00 87 1012.7
20260510011102 11 0.0 0.0 0.00 0.00 0.00 88 1012.7
20260510010602 11 0.0 0.0 0.00 0.00 0.00 87 1012.7
20260510005102 11 0.0 0.0 0.00 0.00 0.00 88 1012.6
20260510004603 11 0.0 0.0 0.00 0.00 0.00 86 1012.7
20260510004102 11 0.0 0.0 0.00 0.00 0.00 87 1013.0
20260510003603 11 0.0 0.0 0.00 0.00 0.00 87 1013.0
20260510003102 11 0.0 0.0 0.00 0.00 0.00 87 1013.0
20260510002602 11 0.0 0.0 0.00 0.00 0.00 89 1013.0
20260510002103 10 0.0 0.0 0.00 0.00 0.00 92 1012.9
20260510001602 11 0.0 0.0 0.00 0.00 0.00 90 1012.9
20260510001102 11 0.0 0.0 0.00 0.00 0.00 89 1012.9
20260510000603 11 0.0 0.0 0.00 0.00 0.00 90 1013.0
20260509235602 11 0.0 0.0 0.00 0.00 0.00 89 1013.0
20260509235102 11 0.0 0.0 0.00 0.00 0.00 90 1013.1
20260509234602 11 0.0 0.0 0.00 0.00 0.00 85 1013.1
20260509234102 11 0.0 0.0 0.00 0.00 0.00 83 1013.1
20260509233603 11 0.0 0.0 0.00 0.00 0.00 84 1013.2
20260509233103 11 0.0 0.0 0.00 0.00 0.00 82 1013.2
20260509232602 11 0.0 0.0 0.00 0.00 0.00 85 1013.1
20260509232103 11 0.0 0.0 0.00 0.00 0.00 87 1013.3
20260509231602 11 0.0 0.0 0.00 0.00 0.00 89 1013.3
20260509231102 11 0.0 0.0 0.00 0.00 0.00 90 1013.4
20260509230602 11 0.0 0.0 0.00 0.00 0.00 90 1013.5
20260509225602 11 0.0 0.0 0.00 0.00 0.00 88 1013.5
20260509225102 11 0.0 0.0 0.00 0.00 0.00 89 1013.5
20260509224602 11 0.0 0.0 0.00 0.00 0.00 90 1013.5
20260509224102 11 0.0 0.0 0.00 0.00 0.00 89 1013.6
20260509223602 11 0.0 0.0 0.00 0.00 0.00 88 1013.6
20260509223102 11 0.0 0.0 0.00 0.00 0.00 86 1013.5
20260509222603 12 0.0 0.0 0.00 0.00 0.00 85 1013.5
20260509222102 11 0.0 0.0 0.00 0.00 0.00 87 1013.5
20260509221602 11 0.0 0.0 0.00 0.00 0.00 87 1013.5
20260509221102 11 0.0 0.0 0.00 0.00 0.00 88 1013.4
20260509220602 11 0.0 0.0 0.00 0.00 0.00 85 1013.4
20260509215602 11 0.0 0.0 0.00 0.00 0.00 85 1013.4
20260509215102 11 0.0 0.0 0.00 0.00 0.00 87 1013.4
20260509214603 11 0.0 0.0 0.00 0.00 0.00 87 1013.4
20260509214102 11 0.0 0.0 0.00 0.00 0.00 88 1013.4
20260509213602 11 0.0 0.0 0.00 0.00 0.00 87 1013.3
20260509213102 11 0.0 0.0 0.00 0.00 0.00 85 1013.2
20260509212601 11 0.0 0.0 0.00 0.00 0.00 83 1013.2
20260509212103 11 0.0 0.0 0.00 0.00 0.00 81 1013.1
20260509211103 12 0.0 0.0 0.00 0.00 0.00 79 1013.0
20260509210603 12 0.0 0.0 0.00 0.00 0.00 78 1012.9
20260509205603 12 0.0 0.0 0.00 0.00 0.00 78 1012.8
20260509205102 12 0.0 0.0 0.00 0.00 0.00 77 1012.8
20260509204603 12 0.0 0.0 0.00 0.00 0.00 77 1012.8
20260509204103 12 0.0 0.0 0.00 0.00 0.00 76 1012.7
20260509203602 12 0.0 0.0 0.00 0.00 0.00 76 1012.7
20260509203103 12 0.0 0.0 0.00 0.00 0.00 77 1012.7
20260509202602 12 0.0 0.0 0.00 0.00 0.00 77 1012.7
20260509202102 12 0.0 0.0 0.00 0.00 0.00 77 1012.6
20260509201602 12 0.0 0.0 0.00 0.00 0.00 77 1012.5
20260509201102 12 0.0 0.0 0.00 0.00 0.00 77 1012.4
20260509200603 12 0.0 0.0 0.00 0.00 0.00 77 1012.3
20260509200103 12 0.0 0.0 0.00 0.00 0.00 79 1012.3
20260509195602 12 0.0 0.0 0.00 0.00 0.00 78 1012.2
20260509195102 12 0.0 0.0 0.00 0.00 0.00 79 1012.1
20260509194602 12 0.0 0.0 0.00 0.00 0.00 79 1012.0
20260509194102 12 0.0 0.0 0.00 0.00 0.00 80 1011.9
20260509193603 12 0.0 0.0 0.00 0.00 0.00 80 1011.9
20260509193103 12 0.0 0.0 0.00 0.00 0.00 81 1011.9
20260509192602 12 0.0 0.0 0.00 0.00 0.00 81 1011.8
20260509192102 12 0.0 0.0 0.00 0.00 0.00 79 1011.7
20260509191602 12 0.0 0.0 0.00 0.00 0.00 80 1011.6
20260509191102 12 0.0 0.0 0.00 0.00 0.00 80 1011.6
20260509190602 12 0.0 0.0 0.00 0.00 0.00 79 1011.5
20260509185603 13 0.0 0.0 0.00 0.00 0.00 77 1011.4
20260509185103 12 0.0 0.0 0.00 0.00 0.00 77 1011.4
20260509184603 12 0.0 0.0 0.00 0.00 0.00 76 1011.4
20260509184102 12 0.0 0.0 0.00 0.00 0.00 76 1011.3
20260509183102 12 0.0 0.0 0.00 0.00 0.00 75 1011.2
20260509182602 13 0.0 0.0 0.00 0.00 0.00 75 1011.0
20260509182102 13 0.0 0.0 0.00 0.00 0.00 75 1010.8
20260509181603 13 0.0 0.0 0.00 0.00 0.00 74 1010.7
20260509181102 13 0.0 0.0 0.00 0.00 0.00 74 1010.6
20260509180601 13 0.0 0.0 0.00 0.00 0.00 74 1010.6
20260509175602 13 0.0 0.0 0.00 0.00 0.00 75 1010.7
20260509175102 13 0.0 0.0 0.00 0.00 0.00 74 1010.8
20260509174602 13 0.0 0.0 0.00 0.00 0.00 73 1010.8
20260509174103 13 0.0 0.0 0.00 0.00 0.00 73 1010.8
20260509173602 13 0.0 0.0 0.00 0.00 0.00 72 1010.9
20260509173102 13 0.0 0.0 0.00 0.00 0.00 72 1010.9
20260509172102 13 0.0 0.0 0.00 0.00 0.00 70 1010.9
20260509171602 13 0.0 0.0 0.00 0.00 0.00 70 1010.9
20260509171102 13 0.0 0.0 0.00 0.00 0.00 69 1011.0
20260509170603 14 0.0 0.0 0.00 0.00 0.00 67 1011.1
20260509165603 14 0.0 0.0 0.00 0.00 0.00 66 1011.2
20260509165102 14 0.0 0.0 0.00 0.00 0.00 65 1011.2
20260509164602 14 0.0 0.0 0.00 0.00 0.00 64 1011.2
20260509164103 14 0.0 0.0 0.00 0.00 0.00 63 1011.3
20260509163603 15 0.0 0.0 0.00 0.00 0.00 62 1011.3
20260509163103 15 0.0 0.0 0.00 0.00 0.00 61 1011.4
20260509162602 15 0.0 0.0 0.00 0.00 0.00 61 1011.3
20260509162102 15 0.0 0.0 0.00 0.00 0.00 61 1011.3
20260509161603 15 0.0 0.0 0.00 0.00 0.00 61 1011.2
20260509161102 15 0.0 0.0 0.00 0.00 0.00 61 1011.2
20260509160603 15 0.0 0.0 0.00 0.00 0.00 61 1011.1
20260509155602 15 0.0 0.0 0.00 0.00 0.00 62 1011.0
20260509155102 15 0.0 0.0 0.00 0.00 0.00 61 1011.0
20260509154604 15 0.0 0.0 0.00 0.00 0.00 62 1010.9
20260509154102 15 0.0 0.0 0.00 0.00 0.00 61 1010.8
20260509153602 16 0.0 0.0 0.00 0.00 0.00 59 1010.7
20260509153102 16 0.0 0.0 0.00 0.00 0.00 59 1010.7
20260509152602 16 0.0 0.0 0.00 0.00 0.00 60 1010.6
20260509152102 16 0.0 0.0 0.00 0.00 0.00 61 1010.7
20260509151603 16 0.0 0.0 0.00 0.00 0.00 62 1010.6
20260509151103 16 0.0 0.0 0.00 0.00 0.00 63 1010.5
20260509150603 15 0.0 0.0 0.00 0.00 0.00 63 1010.7
20260509145602 15 0.0 0.0 0.00 0.00 0.00 63 1011.0
20260509145102 14 0.0 0.0 0.00 0.00 0.00 63 1011.1
20260509144603 15 0.0 0.0 0.00 0.00 0.00 63 1011.1
20260509144102 15 0.0 0.0 0.00 0.00 0.00 63 1011.2
20260509143603 14 0.0 0.0 0.00 0.00 0.00 62 1011.2
20260509143103 15 0.0 0.0 0.00 0.00 0.00 62 1011.3
20260509142602 14 0.0 0.0 0.00 0.00 0.00 63 1011.4
20260509142102 14 0.0 0.0 0.00 0.00 0.00 63 1011.5
20260509141602 14 0.0 0.0 0.00 0.00 0.00 63 1011.5
20260509141103 14 0.0 0.0 0.00 0.00 0.00 63 1011.7
20260509140602 14 0.0 0.0 0.00 0.00 0.00 63 1011.8
20260509135602 15 0.0 0.0 0.00 0.00 0.00 62 1012.0
20260509135102 15 0.0 0.0 0.00 0.00 0.00 62 1012.1
20260509134602 15 0.0 0.0 0.00 0.00 0.00 62 1012.0
20260509134102 15 0.0 0.0 0.00 0.00 0.00 62 1012.1
20260509133603 15 0.0 0.0 0.00 0.00 0.00 62 1012.1
20260509133102 15 0.0 0.0 0.00 0.00 0.00 62 1012.0
20260509132603 15 0.0 0.0 0.00 0.00 0.00 61 1011.9
20260509132102 15 0.0 0.0 0.00 0.00 0.00 61 1012.0
20260509131602 15 0.0 0.0 0.00 0.00 0.00 60 1011.9
20260509131103 15 0.0 0.0 0.00 0.00 0.00 59 1011.9
20260509130602 15 0.0 0.0 0.00 0.00 0.00 58 1012.0
20260509125604 15 0.0 0.0 0.00 0.00 0.00 58 1012.0
20260509125102 15 0.0 0.0 0.00 0.00 0.00 58 1012.1
20260509124602 15 0.0 0.0 0.00 0.00 0.00 57 1012.1
20260509124103 15 0.0 0.0 0.00 0.00 0.00 57 1012.2
20260509123603 15 0.0 0.0 0.00 0.00 0.00 57 1012.4
20260509123102 15 0.0 0.0 0.00 0.00 0.00 57 1012.5
20260509122603 15 0.0 0.0 0.00 0.00 0.00 57 1012.5
20260509122102 15 0.0 0.0 0.00 0.00 0.00 56 1012.5
20260509121602 15 0.0 0.0 0.00 0.00 0.00 55 1012.6
20260509121102 15 0.0 0.0 0.00 0.00 0.00 55 1012.6
20260509120602 15 0.0 0.0 0.00 0.00 0.00 55 1012.6
20260509115602 15 0.0 0.0 0.00 0.00 0.00 54 1012.3
20260509115103 15 0.0 0.0 0.00 0.00 0.00 54 1012.3
20260509114602 15 0.0 0.0 0.00 0.00 0.00 55 1012.1
20260509114102 15 0.0 0.0 0.00 0.00 0.00 55 1012.2
20260509113602 15 0.0 0.0 0.00 0.00 0.00 56 1012.2
20260509113102 15 0.0 0.0 0.00 0.00 0.00 56 1012.2
20260509112603 15 0.0 0.0 0.00 0.00 0.00 56 1012.4
20260509111602 15 0.0 0.0 0.00 0.00 0.00 56 1012.7
20260509111102 15 0.0 0.0 0.00 0.00 0.00 57 1012.7
20260509110602 15 0.0 0.0 0.00 0.00 0.00 57 1012.7
20260509110103 15 0.0 0.0 0.00 0.00 0.00 58 1012.8
20260509105603 15 0.0 0.0 0.00 0.00 0.00 59 1013.0
20260509105102 14 0.0 0.0 0.00 0.00 0.00 59 1013.1
20260509104602 14 0.0 0.0 0.00 0.00 0.00 58 1013.3
20260509104108 14 0.0 0.0 0.00 0.00 0.00 60 1013.4
20260509103602 14 0.0 0.0 0.00 0.00 0.00 60 1013.3
20260509103103 14 0.0 0.0 0.00 0.00 0.00 60 1013.3
20260509102603 14 0.0 0.0 0.00 0.00 0.00 60 1013.4
20260509101602 14 0.0 0.0 0.00 0.00 0.00 59 1013.4
20260509101102 13 0.0 0.0 0.00 0.00 0.00 60 1013.3
20260509100603 13 0.0 0.0 0.00 0.00 0.00 60 1013.2
20260509095602 13 0.0 0.0 0.00 0.00 0.00 62 1013.3
20260509095102 13 0.0 0.0 0.00 0.00 0.00 61 1013.2
20260509094602 13 0.0 0.0 0.00 0.00 0.00 62 1013.2
20260509094102 13 0.0 0.0 0.00 0.00 0.00 63 1013.4
20260509093603 13 0.0 0.0 0.00 0.00 0.00 63 1013.4
20260509093102 13 0.0 0.0 0.00 0.00 0.00 64 1013.3
20260509092102 12 0.0 0.0 0.00 0.00 0.00 64 1013.5
20260509091602 12 0.0 0.0 0.00 0.00 0.00 64 1013.5
20260509091102 12 0.0 0.0 0.00 0.00 0.00 65 1013.7
20260509090602 12 0.0 0.0 0.00 0.00 0.00 66 1013.6
20260509085602 12 0.0 0.0 0.00 0.00 0.00 65 1013.4
20260509085102 12 0.0 0.0 0.00 0.00 0.00 66 1013.6
20260509084603 12 0.0 0.0 0.00 0.00 0.00 67 1013.7
20260509084103 12 0.0 0.0 0.00 0.00 0.00 67 1013.7
20260509083602 12 0.0 0.0 0.00 0.00 0.00 67 1013.6
20260509083103 11 0.0 0.0 0.00 0.00 0.00 68 1013.7
20260509082603 12 0.0 0.0 0.00 0.00 0.00 68 1013.7
20260509082103 11 0.0 0.0 0.00 0.00 0.00 68 1013.7
20260509081602 12 0.0 0.0 0.00 0.00 0.00 67 1013.6
20260509081102 12 0.0 0.0 0.00 0.00 0.00 65 1013.5
20260509080602 12 0.0 0.0 0.00 0.00 0.00 64 1013.7
20260509075603 12 0.0 0.0 0.00 0.00 0.00 65 1013.6
20260509075102 12 0.0 0.0 0.00 0.00 0.00 66 1013.6
20260509074602 12 0.0 0.0 0.00 0.00 0.00 64 1013.7
20260509074102 12 0.0 0.0 0.00 0.00 0.00 64 1013.6
20260509073602 12 0.0 0.0 0.00 0.00 0.00 66 1013.7
20260509073103 11 0.0 0.0 0.00 0.00 0.00 67 1013.7
20260509072603 12 0.0 0.0 0.00 0.00 0.00 67 1013.7
20260509072103 11 0.0 0.0 0.00 0.00 0.00 69 1013.8
20260509071102 11 0.0 0.0 0.00 0.00 0.00 69 1014.1
20260509070602 11 0.0 0.0 0.00 0.00 0.00 70 1014.3
20260509065602 10 0.0 0.0 0.00 0.00 0.00 73 1014.7
20260509065103 10 0.0 0.0 0.00 0.00 0.00 72 1014.8
20260509064603 10 0.0 0.0 0.00 0.00 0.00 72 1014.9
20260509064102 10 0.0 0.0 0.00 0.00 0.00 72 1014.9
20260509063603 10 0.0 0.0 0.00 0.00 0.00 72 1015.1
20260509063101 10 0.0 0.0 0.00 0.00 0.00 71 1015.1
20260509062602 10 0.0 0.0 0.00 0.00 0.00 71 1015.2
20260509062102 10 0.0 0.0 0.00 0.00 0.00 73 1015.1
20260509061602 10 0.0 0.0 0.00 0.00 0.00 71 1015.0
20260509060603 11 0.0 0.0 0.00 0.00 0.00 70 1015.1
20260509055602 10 0.0 0.0 0.00 0.00 0.00 72 1014.9
20260509055102 10 0.0 0.0 0.00 0.00 0.00 72 1015.0
20260509054602 10 0.0 0.0 0.00 0.00 0.00 74 1015.0
20260509054102 10 0.0 0.0 0.00 0.00 0.00 73 1014.9
20260509053602 10 0.0 0.0 0.00 0.00 0.00 75 1014.7
20260509053102 10 0.0 0.0 0.00 0.00 0.00 75 1014.8
20260509052103 10 0.0 0.0 0.00 0.00 0.00 77 1014.8
20260509051102 10 0.0 0.0 0.00 0.00 0.00 77 1014.8
20260509045602 10 0.0 0.0 0.00 0.00 0.00 75 1014.7
20260509044603 10 0.0 0.0 0.00 0.00 0.00 76 1014.8
20260509044102 10 0.0 0.0 0.00 0.00 0.00 76 1014.7
20260509043602 10 0.0 0.0 0.00 0.00 0.00 76 1014.7
20260509043103 10 0.0 0.0 0.00 0.00 0.00 76 1014.8
20260509042602 10 0.0 0.0 0.00 0.00 0.00 77 1014.7
20260509042102 10 0.0 0.0 0.00 0.00 0.00 75 1014.7